K9KDT Weather Reports


Display with metric or nautical units.
time (UTC)temp
F
wind
direction
speed
MPH
gust
MPH
rain 1hr
in
rain 24hr
in
rain mn
in
humidity
%
barometer
mb
20260505211138 55 277 8.0 14.0 0.00 0.02 0.00 38 1008.8
20260505210137 55 259 11.0 15.0 0.00 0.02 0.00 36 1008.9
20260505205137 56 309 4.0 16.0 0.00 0.02 0.00 37 1008.8
20260505204138 55 276 9.0 14.0 0.00 0.02 0.00 35 1008.8
20260505203138 55 286 12.0 16.0 0.00 0.02 0.00 34 1008.8
20260505202138 55 284 4.0 14.0 0.00 0.02 0.00 36 1009.0
20260505201137 55 279 5.0 14.0 0.00 0.02 0.00 39 1009.0
20260505195137 56 298 7.0 19.0 0.00 0.02 0.00 36 1009.3
20260505194138 57 243 9.0 15.0 0.00 0.02 0.00 36 1009.3
20260505192138 55 261 9.0 13.0 0.00 0.02 0.00 38 1009.2
20260505191137 56 213 6.0 17.0 0.00 0.02 0.00 35 1009.6
20260505185137 56 218 8.0 17.0 0.00 0.02 0.00 34 1009.4
20260505184137 56 219 11.0 15.0 0.00 0.02 0.00 34 1009.4
20260505183138 55 232 6.0 14.0 0.00 0.02 0.00 36 1009.3
20260505182138 56 273 12.0 17.0 0.00 0.02 0.00 32 1009.2
20260505181137 56 209 7.0 15.0 0.00 0.02 0.00 35 1009.3
20260505180137 56 234 11.0 19.0 0.00 0.02 0.00 36 1009.2
20260505175137 56 231 15.0 15.0 0.00 0.02 0.00 37 1009.1
20260505174137 56 330 5.0 17.0 0.00 0.02 0.00 34 1009.1
20260505173137 55 240 3.0 13.0 0.00 0.02 0.00 35 1009.1
20260505172138 55 284 10.0 17.0 0.00 0.02 0.00 37 1008.9
20260505164137 54 281 7.0 17.0 0.00 0.02 0.00 39 1009.1
20260505163137 53 261 6.0 17.0 0.00 0.02 0.00 42 1008.8
20260505161137 53 265 7.0 12.0 0.00 0.02 0.00 41 1008.7
20260505160137 52 295 10.0 18.0 0.00 0.02 0.00 39 1008.8
20260505153137 52 269 7.0 11.0 0.00 0.02 0.00 43 1008.6
20260505151137 51 270 8.0 12.0 0.00 0.02 0.00 41 1008.8
20260505150137 51 284 9.0 12.0 0.00 0.02 0.00 41 1008.9
20260505130137 48 281 3.0 7.0 0.00 0.02 0.00 53 1009.0
20260505124137 48 284 5.0 8.0 0.00 0.02 0.00 54 1008.8
20260505123137 48 280 3.0 9.0 0.00 0.02 0.00 55 1008.5
20260505122138 47 292 4.0 10.0 0.00 0.02 0.00 56 1008.6
20260505121137 47 279 3.0 8.0 0.00 0.02 0.00 58 1008.8
20260505120137 47 290 4.0 5.0 0.00 0.02 0.00 57 1008.4
20260505115137 47 254 2.0 5.0 0.00 0.02 0.00 56 1009.0
20260505114137 47 290 3.0 6.0 0.00 0.02 0.00 53 1008.8
20260505113137 48 263 3.0 9.0 0.00 0.02 0.00 53 1008.3
20260505112137 47 288 2.0 6.0 0.00 0.02 0.00 55 1007.6
20260505111137 48 252 2.0 8.0 0.00 0.02 0.00 53 1007.3
20260505110137 48 328 3.0 8.0 0.00 0.02 0.00 53 1006.8
20260505102137 48 286 3.0 6.0 0.00 0.02 0.00 55 1007.3
20260505101137 48 325 4.0 10.0 0.00 0.02 0.00 55 1007.3
20260505100137 48 298 6.0 9.0 0.00 0.02 0.00 55 1006.5
20260505095137 49 321 4.0 10.0 0.00 0.02 0.00 54 1006.3
20260505094137 49 311 3.0 11.0 0.00 0.02 0.00 53 1006.6
20260505093137 49 308 7.0 12.0 0.00 0.02 0.00 53 1006.6
20260505092137 50 341 8.0 16.0 0.00 0.02 0.00 53 1006.4
20260505091137 50 286 4.0 9.0 0.00 0.02 0.00 52 1006.0
20260505090137 50 311 4.0 10.0 0.00 0.02 0.00 53 1006.2
20260505085137 50 318 3.0 11.0 0.00 0.02 0.00 53 1006.1
20260505084137 50 296 4.0 11.0 0.00 0.02 0.00 54 1005.7
20260505083137 51 313 7.0 10.0 0.00 0.02 0.00 52 1005.8
20260505082137 51 322 7.0 12.0 0.00 0.02 0.00 51 1005.4
20260505081137 52 333 7.0 15.0 0.00 0.02 0.00 50 1005.2
20260505080137 52 334 7.0 19.0 0.00 0.02 0.00 50 1004.8
20260505075137 53 292 6.0 12.0 0.00 0.02 0.00 52 1005.0
20260505074137 54 315 4.0 9.0 0.00 0.02 0.00 50 1004.7
20260505073137 54 331 4.0 12.0 0.00 0.02 0.00 49 1004.3
20260505072137 55 272 3.0 10.0 0.00 0.02 0.00 48 1004.2
20260505071137 55 304 3.0 9.0 0.00 0.02 0.00 47 1004.0
20260505070137 55 238 5.0 12.0 0.00 0.02 0.00 48 1004.0
20260505065137 56 302 6.0 15.0 0.00 0.02 0.00 45 1003.9
20260505064137 56 306 4.0 13.0 0.00 0.02 0.00 44 1003.6
20260505063137 56 302 5.0 14.0 0.00 0.02 0.00 44 1003.4
20260505062137 56 298 4.0 10.0 0.00 0.02 0.00 45 1003.7
20260505061137 57 296 8.0 12.0 0.00 0.02 0.00 44 1003.6
20260505060137 57 292 5.0 12.0 0.00 0.02 0.00 43 1003.4
20260505055137 57 269 5.0 8.0 0.00 0.02 0.00 44 1003.2
20260505054137 58 290 4.0 11.0 0.00 0.02 0.00 43 1003.2
20260505053137 58 265 3.0 11.0 0.00 0.02 0.00 41 1003.2
20260505052137 58 300 7.0 14.0 0.00 0.02 0.00 42 1003.2
20260505051137 58 276 3.0 11.0 0.00 0.02 0.00 42 1003.1
20260505050137 58 301 6.0 10.0 0.00 0.02 0.00 41 1002.7
20260505041136 61 236 6.0 15.0 0.00 0.02 0.02 38 1002.5
20260505040136 61 281 7.0 16.0 0.00 0.02 0.02 39 1002.3
20260505035136 62 277 10.0 14.0 0.00 0.02 0.02 39 1002.3
20260505034136 62 294 9.0 15.0 0.00 0.02 0.02 40 1002.0
20260505033136 63 263 13.0 15.0 0.00 0.02 0.02 41 1001.9
20260505032137 64 274 6.0 15.0 0.00 0.02 0.02 40 1001.4
20260505030136 65 254 10.0 14.0 0.00 0.02 0.02 43 1001.5
20260505025137 66 281 9.0 16.0 0.00 0.02 0.02 43 1001.4
20260505024137 65 280 5.0 9.0 0.00 0.02 0.02 55 1001.2
20260505023136 65 283 6.0 12.0 0.00 0.02 0.02 58 1000.9
20260505022136 65 263 4.0 13.0 0.00 0.02 0.02 59 1000.8
20260505020136 66 229 11.0 18.0 0.00 0.02 0.02 58 1000.3
20260505015136 66 207 7.0 15.0 0.00 0.02 0.02 60 999.9
20260505013136 67 186 12.0 17.0 0.00 0.02 0.02 55 999.3
20260505011136 68 217 5.0 15.0 0.00 0.02 0.02 52 999.0
20260505010136 69 186 7.0 13.0 0.00 0.02 0.02 50 999.0
20260505005136 70 165 5.0 11.0 0.00 0.02 0.02 48 998.7
20260505004136 70 231 6.0 12.0 0.00 0.02 0.02 47 998.0
20260505003136 70 233 2.0 11.0 0.00 0.02 0.02 47 997.5
20260505001136 70 275 5.0 9.0 0.00 0.02 0.02 48 997.4
20260505000136 71 215 4.0 13.0 0.00 0.02 0.02 46 997.4
20260504235136 71 229 2.0 16.0 0.00 0.02 0.02 47 997.1
20260504234137 71 174 8.0 17.0 0.00 0.02 0.02 49 997.1
20260504233136 71 239 7.0 15.0 0.00 0.02 0.02 47 997.4
20260504232136 72 243 6.0 11.0 0.00 0.02 0.02 43 997.5
20260504231136 72 264 5.0 17.0 0.00 0.02 0.02 42 997.6
20260504230136 72 212 16.0 21.0 0.02 0.02 0.02 41 997.7
20260504225136 72 150 12.0 35.0 0.02 0.02 0.02 41 997.8
20260504224136 71 196 6.0 21.0 0.02 0.02 0.02 44 998.1
20260504223136 72 220 9.0 23.0 0.02 0.02 0.02 45 998.3
20260504222136 71 219 6.0 15.0 0.02 0.02 0.02 49 998.0
20260504221136 70 213 7.0 31.0 0.02 0.02 0.02 51 998.2
20260504220136 75 254 4.0 13.0 0.00 0.00 0.00 39 998.1
20260504215137 75 275 10.0 17.0 0.00 0.00 0.00 37 998.1
20260504214136 77 263 7.0 17.0 0.00 0.00 0.00 35 998.1